Location: LDNL
(36.4545°S, 141.6685°E)
Time: 21:43:55
(UTC+11:00)

Transit 2A - Visible Passes

Search period start: 19 January 2022 00:00
Search period end: 29 January 2022 00:00
Orbit: 591 x 967 km, 66.7° (Epoch: 18 January)

Date Brightness Start Highest point End Pass type
(mag) Time Alt. Az. Time Alt. Az. Time Alt. Az.
19 Jan 7.3 03:10:31 27° SSW 03:10:31 27° SSW 03:13:20 10° S visible
20 Jan 7.4 02:37:02 29° S 02:37:02 29° S 02:39:23 10° SSE visible
21 Jan 7.7 02:03:32 24° SSE 02:03:32 24° SSE 02:05:17 10° SSE visible
22 Jan 8.0 01:29:59 17° SE 01:29:59 17° SE 01:31:03 10° SSE visible
22 Jan 8.2 03:10:26 12° SW 03:10:26 12° SW 03:12:02 10° SSW visible
23 Jan 8.3 00:56:24 11° SE 00:56:24 11° SE 00:56:38 10° SE visible
23 Jan 8.0 02:36:52 17° SSW 02:36:52 17° SSW 02:38:50 10° S visible
24 Jan 7.9 02:03:14 20° SSW 02:03:14 20° SSW 02:05:08 10° S visible
25 Jan 7.9 01:29:33 21° S 01:29:33 21° S 01:31:14 10° SSE visible
26 Jan 7.9 00:55:50 19° SSE 00:55:50 19° SSE 00:57:10 10° SSE visible
27 Jan 8.0 00:22:03 16° SSE 00:22:03 16° SSE 00:22:57 10° SSE visible
27 Jan 8.4 02:02:30 11° SW 02:02:30 11° SW 02:03:34 10° SSW visible
27 Jan 8.1 23:48:11 12° SE 23:48:11 12° SE 23:48:34 10° SE visible
28 Jan 8.2 01:28:38 16° SW 01:28:38 16° SW 01:30:35 10° S visible
